This is the latest recevied weather packets stored in our database for station/object OM7ABC-15. If no packets are shown the sender has not sent any weather packets the latest 10 day(s).
| Time | Temp. | Humidity | Pressure | Rain* | Wind** | Luminosity | Snow |
|---|---|---|---|---|---|---|---|
| 1777493372 | 22.22° C | 40% | 991.2 hPa | - | - | - | - |
| 1777492472 | 22.22° C | 40% | 991.1 hPa | - | - | - | - |
| 1777491572 | 22.22° C | 40% | 990.8 hPa | - | - | - | - |
| 1777490672 | 22.22° C | 40% | 990.7 hPa | - | - | - | - |
| 1777489772 | 22.22° C | 41% | 990.6 hPa | - | - | - | - |
| 1777488872 | 22.22° C | 39% | 990.3 hPa | - | - | - | - |
| 1777487972 | 22.22° C | 37% | 990 hPa | - | - | - | - |
| 1777487072 | 22.22° C | 36% | 989.8 hPa | - | - | - | - |
| 1777486172 | 22.22° C | 36% | 989.4 hPa | - | - | - | - |
| 1777485272 | 22.22° C | 36% | 989.2 hPa | - | - | - | - |
| 1777484374 | 22.22° C | 36% | 988.8 hPa | - | - | - | - |
| 1777483471 | 21.67° C | 35% | 988.6 hPa | - | - | - | - |
| 1777482571 | 21.67° C | 33% | 988.3 hPa | - | - | - | - |
| 1777481671 | 21.67° C | 33% | 988.1 hPa | - | - | - | - |
| 1777480771 | 21.67° C | 33% | 987.8 hPa | - | - | - | - |
| 1777479871 | 21.67° C | 33% | 987.7 hPa | - | - | - | - |
| 1777478971 | 21.67° C | 35% | 987.8 hPa | - | - | - | - |
| 1777478071 | 21.67° C | 35% | 987.5 hPa | - | - | - | - |
| 1777477171 | 21.67° C | 35% | 987.5 hPa | - | - | - | - |
| 1777476271 | 21.67° C | 35% | 987.3 hPa | - | - | - | - |
| 1777475371 | 22.22° C | 34% | 987.2 hPa | - | - | - | - |
| 1777474471 | 21.67° C | 35% | 987.2 hPa | - | - | - | - |
| 1777473571 | 21.67° C | 31% | 987.2 hPa | - | - | - | - |
| 1777472670 | 22.22° C | 36% | 987.1 hPa | - | - | - | - |
| 1777471770 | 22.22° C | 36% | 987.1 hPa | - | - | - | - |
* Rain since midnight (hover to see other rain measurements)
** Current wind speed in m/s (hover to see current wind gust speed)